Location: Quaker Farms
(41.4276°N, 73.1557°W)
Time: 19:06:32
(UTC+00:00)

Tiros 1 despin weight - All Passes

Search period start: 18 June 2021 00:00
Search period end: 28 June 2021 00:00
Orbit: 593 x 641 km, 48.2° (Epoch: 18 June)

Date Brightness Start Highest point End Pass type
(mag) Time Alt. Az. Time Alt. Az. Time Alt. Az.
18 Jun - 09:59:32 10° SSW 10:03:08 25° SE 10:06:45 10° E daylight
18 Jun - 11:39:57 10° WSW 11:44:21 74° NNW 11:48:46 10° ENE daylight
18 Jun - 13:22:16 10° WNW 13:26:20 35° N 13:30:26 10° ENE daylight
18 Jun - 15:04:20 10° WNW 15:08:33 41° NNE 15:12:48 10° E daylight
18 Jun - 16:45:52 10° WNW 16:50:17 68° SSW 16:54:45 10° SE daylight
18 Jun - 18:29:02 10° WSW 18:31:12 13° SW 18:33:23 10° SSW daylight
19 Jun - 10:15:00 10° SW 10:19:13 46° SE 10:23:27 10° ENE daylight
19 Jun - 11:56:28 10° W 12:00:45 49° NNW 12:05:04 10° ENE daylight
19 Jun - 13:38:53 10° WNW 13:42:55 33° N 13:46:58 10° ENE daylight
19 Jun - 15:20:39 10° WNW 15:25:01 57° NNE 15:29:26 10° E daylight
19 Jun - 17:02:20 10° WNW 17:06:27 37° SW 17:10:35 10° SSE daylight
20 Jun - 08:51:32 10° S 08:54:25 17° SE 08:57:16 10° E daylight
20 Jun - 10:31:00 10° WSW 10:35:26 83° SSE 10:39:51 10° ENE daylight
20 Jun - 12:13:08 10° W 12:17:16 38° N 12:21:25 10° ENE daylight
20 Jun - 13:55:22 10° WNW 13:59:29 37° N 14:03:37 10° ENE daylight
20 Jun - 15:36:56 10° WNW 15:41:23 88° NNE 15:45:52 10° ESE daylight
20 Jun - 17:19:14 10° W 17:22:29 20° SW 17:25:45 10° S daylight
21 Jun - 09:06:28 10° SSW 09:10:24 32° SE 09:14:21 10° ENE daylight
21 Jun - 10:47:23 10° WSW 10:51:46 62° NNW 10:56:09 10° ENE daylight
21 Jun - 12:29:48 10° WNW 12:33:49 34° N 12:37:53 10° ENE daylight
21 Jun - 14:11:44 10° WNW 14:16:01 46° NNE 14:20:18 10° E daylight
21 Jun - 15:53:18 10° WNW 15:57:37 53° SW 16:01:58 10° SE daylight
22 Jun - 07:44:27 10° SSE 07:45:43 11° SE 07:46:59 10° ESE visible
22 Jun - 09:22:12 10° SW 09:26:33 60° SE 09:30:54 10° ENE daylight
22 Jun - 11:03:59 10° W 11:08:13 44° NNW 11:12:27 10° ENE daylight
22 Jun - 12:46:22 10° WNW 12:50:25 34° N 12:54:28 10° ENE daylight
22 Jun - 14:28:01 10° WNW 14:32:26 67° NNE 14:36:52 10° ESE daylight
22 Jun - 16:09:54 10° W 16:13:43 29° SW 16:17:35 10° SSE daylight
23 Jun - 07:58:12 10° S 08:01:39 22° SE 08:05:05 10° E visible
23 Jun - 09:38:22 10° WSW 09:42:48 81° NNW 09:47:14 10° ENE daylight
23 Jun - 11:20:40 10° WNW 11:24:45 36° N 11:28:50 10° ENE daylight
23 Jun - 13:02:48 10° WNW 13:06:58 40° NNE 13:11:09 10° E daylight
23 Jun - 14:44:20 10° WNW 14:48:45 75° SSW 14:53:11 10° SE daylight
23 Jun - 16:27:10 10° W 16:29:42 15° SW 16:32:16 10° SSW daylight
24 Jun - 08:13:32 10° SSW 08:17:42 41° SE 08:21:53 10° ENE visible
24 Jun - 09:54:51 10° W 09:59:11 53° NNW 10:03:31 10° ENE daylight
24 Jun - 11:37:18 10° WNW 11:41:19 33° N 11:45:21 10° ENE daylight
24 Jun - 13:19:07 10° WNW 13:23:26 53° NNE 13:27:47 10° E daylight
24 Jun - 15:00:46 10° WNW 15:04:56 41° SW 15:09:07 10° SSE daylight
25 Jun - 06:50:22 10° SSE 06:52:56 15° SE 06:55:29 10° E visible
25 Jun - 08:29:28 10° SW 08:33:54 75° SSE 08:38:18 10° ENE visible
25 Jun - 10:11:30 10° W 10:15:40 39° NNW 10:19:51 10° ENE daylight
25 Jun - 11:53:48 10° WNW 11:57:54 36° N 12:01:58 10° ENE daylight
25 Jun - 13:35:24 10° WNW 13:39:50 81° NNE 13:44:16 10° ESE daylight
25 Jun - 15:17:33 10° W 15:20:59 22° SW 15:24:25 10° S daylight
26 Jun - 07:05:03 10° SSW 07:08:54 29° SE 07:12:44 10° E visible
26 Jun - 08:45:47 10° WSW 08:50:12 67° NNW 08:54:37 10° ENE visible
26 Jun - 10:28:10 10° WNW 10:32:14 34° N 10:36:17 10° ENE daylight
26 Jun - 12:10:11 10° WNW 12:14:25 44° NNE 12:18:39 10° E daylight
26 Jun - 13:51:44 10° WNW 13:56:05 59° SW 14:00:26 10° SE daylight
26 Jun - 15:35:40 10° WSW 15:36:55 11° SW 15:38:10 10° SSW daylight
27 Jun - 07:20:40 10° SW 07:25:01 53° SE 07:29:20 10° ENE visible
27 Jun - 09:02:20 10° W 09:06:38 46° NNW 09:10:54 10° ENE daylight
27 Jun - 10:44:46 10° WNW 10:48:48 34° N 10:52:51 10° ENE daylight
27 Jun - 12:26:29 10° WNW 12:30:52 62° NNE 12:35:14 10° ESE daylight
27 Jun - 14:08:17 10° WNW 14:12:13 32° SW 14:16:10 10° SSE daylight
